This is the latest recevied weather packets stored in our database for station/object WA7CUG. If no packets are shown the sender has not sent any weather packets the latest 10 day(s).
| Time | Temp. | Humidity | Pressure | Rain* | Wind** | Luminosity | Snow |
|---|---|---|---|---|---|---|---|
| 1777490355 | 19.44° C | 41% | 1023.9 hPa | 0 mm | - | 659 W/m² | - |
| 1777490053 | 20° C | 40% | 1024 hPa | 0 mm | - | 655 W/m² | - |
| 1777489750 | 19.44° C | 43% | 1023.6 hPa | 0 mm | - | 651 W/m² | - |
| 1777489447 | 19.44° C | 44% | 1023.9 hPa | 0 mm | - | 647 W/m² | - |
| 1777489143 | 19.44° C | 43% | 1023.9 hPa | 0 mm | - | 640 W/m² | - |
| 1777488841 | 18.89° C | 44% | 1024 hPa | 0 mm | - | 635 W/m² | - |
| 1777488538 | 18.89° C | 46% | 1024 hPa | 0 mm | - | 630 W/m² | - |
| 1777488236 | 18.89° C | 45% | 1024 hPa | 0 mm | - | 625 W/m² | - |
| 1777487934 | 18.33° C | 46% | 1024.2 hPa | 0 mm | - | 618 W/m² | - |
| 1777487631 | 18.33° C | 46% | 1024.2 hPa | 0 mm | - | 611 W/m² | - |
| 1777487328 | 17.78° C | 46% | 1024.3 hPa | 0 mm | - | 605 W/m² | - |
| 1777487025 | 17.78° C | 45% | 1024.3 hPa | 0 mm | - | 598 W/m² | - |
| 1777486721 | 17.78° C | 47% | 1024.3 hPa | 0 mm | - | 588 W/m² | - |
| 1777486419 | 17.78° C | 46% | 1024.5 hPa | 0 mm | - | 582 W/m² | - |
| 1777486116 | 17.78° C | 47% | 1024.5 hPa | 0 mm | - | 573 W/m² | - |
| 1777485813 | 17.22° C | 46% | 1024.6 hPa | 0 mm | - | 565 W/m² | - |
| 1777485509 | 17.22° C | 47% | 1024.4 hPa | 0 mm | - | 557 W/m² | - |
| 1777485205 | 17.22° C | 47% | 1024.6 hPa | 0 mm | - | 549 W/m² | - |
| 1777484902 | 17.22° C | 47% | 1024.5 hPa | 0 mm | - | 540 W/m² | - |
| 1777484599 | 16.67° C | 48% | 1024.5 hPa | 0 mm | - | 531 W/m² | - |
| 1777484295 | 16.67° C | 50% | 1024.4 hPa | 0 mm | - | 525 W/m² | - |
| 1777483991 | 16.67° C | 50% | 1024.6 hPa | 0 mm | - | 516 W/m² | - |
| 1777483688 | 16.11° C | 50% | 1024.4 hPa | 0 mm | - | 506 W/m² | - |
| 1777483383 | 16.11° C | 52% | 1024.7 hPa | 0 mm | - | 498 W/m² | - |
| 1777483079 | 15.56° C | 52% | 1024.6 hPa | 0 mm | - | 489 W/m² | - |
* Rain latest hour (hover to see other rain measurements)
** Current wind speed in m/s (hover to see current wind gust speed)